This is the latest recevied weather packets stored in our database for station/object VK2HN. If no packets are shown the sender has not sent any weather packets the latest 10 day(s).
| Time | Temp. | Humidity | Pressure | Rain* | Wind** | Luminosity | Snow |
|---|---|---|---|---|---|---|---|
| 1778143537 | 11.11° C | 53% | 1019.2 hPa | 0 mm | - | - | - |
| 1778143237 | 11.67° C | 53% | 1019.1 hPa | 0 mm | - | - | - |
| 1778142937 | 11.11° C | 52% | 1019.1 hPa | 0 mm | - | - | - |
| 1778142637 | 11.11° C | 54% | 1019 hPa | 0 mm | - | - | - |
| 1778142337 | 11.11° C | 54% | 1018.8 hPa | 0 mm | - | - | - |
| 1778142037 | 11.11° C | 57% | 1018.7 hPa | 0 mm | - | - | - |
| 1778141737 | 11.11° C | 60% | 1018.5 hPa | 0 mm | - | - | - |
| 1778141437 | 11.67° C | 56% | 1018.6 hPa | 0 mm | - | - | - |
| 1778141137 | 11.67° C | 54% | 1018.3 hPa | 0 mm | - | - | - |
| 1778140837 | 11.67° C | 54% | 1018.2 hPa | 0 mm | - | - | - |
| 1778140537 | 12.22° C | 52% | 1018.1 hPa | 0 mm | - | - | - |
| 1778140237 | 12.22° C | 49% | 1018.2 hPa | 0 mm | - | - | - |
| 1778139937 | 12.22° C | 50% | 1018.1 hPa | 0 mm | - | - | - |
| 1778139637 | 12.78° C | 47% | 1018 hPa | 0 mm | - | - | - |
| 1778139337 | 12.78° C | 47% | 1017.9 hPa | 0 mm | - | - | - |
| 1778139037 | 12.78° C | 47% | 1017.8 hPa | 0 mm | - | - | - |
| 1778138737 | 12.78° C | 47% | 1017.7 hPa | 0 mm | - | - | - |
| 1778138437 | 13.33° C | 46% | 1017.9 hPa | 0 mm | - | - | - |
| 1778138137 | 13.33° C | 46% | 1017.7 hPa | 0 mm | - | - | - |
| 1778137837 | 13.89° C | 44% | 1017.6 hPa | 0 mm | - | - | - |
| 1778137537 | 13.89° C | 44% | 1017.6 hPa | 0 mm | - | - | - |
| 1778137237 | 13.89° C | 43% | 1017.5 hPa | 0 mm | - | - | - |
| 1778136937 | 14.44° C | 43% | 1017.5 hPa | 0 mm | - | - | - |
| 1778136637 | 14.44° C | 42% | 1017.4 hPa | 0 mm | - | - | - |
| 1778136337 | 14.44° C | 43% | 1017.3 hPa | 0 mm | - | - | - |
* Rain latest hour (hover to see other rain measurements)
** Current wind speed in m/s (hover to see current wind gust speed)